Location: Poughquag
(41.6090°N, 73.6820°W)
Time: 02:32:59
(UTC-04:00)

Vanguard 1 - Pass Details

Date: 02 June 2020
Orbit: 650 x 3833 km, 34.2° (Epoch: 06 July)

Event Time Altitude Azimuth Distance (km) Brightness Sun altitude
Rises 11:12:42 0° 281° (W) 7,519 14.3 61.5°
Reaches altitude 10° 11:17:41 10° 277° (W) 6,716 14.2 62.2°
Maximum altitude 11:39:24 51° 211° (SSW) 4,310 14.3 65.3°
Drops below altitude 10° 11:57:33 10° 142° (SE) 5,686 14.5 67.5°
Sets 12:01:23 0° 137° (SE) 6,346 14.5 67.9°
